| time (UTC) | temp F | wind direction | speed MPH | gust MPH | rain 1hr in | rain 24hr in | rain mn in | humidity % | barometer mb |
| 20260508023509 | 57 | 217 | 1.0 | 1.0 | 0.00 | 0.00 | 0.00 | 65 | 1019.3 |
| 20260508023022 | 57 | 223 | 4.0 | 4.0 | 0.00 | 0.00 | 0.00 | 64 | 1019.3 |
| 20260508022509 | 57 | 313 | 3.0 | 3.0 | 0.00 | 0.00 | 0.00 | 64 | 1019.3 |
| 20260508022013 | 57 | 267 | 4.0 | 4.0 | 0.00 | 0.00 | 0.00 | 63 | 1019.3 |
| 20260508021512 | 57 | 219 | 2.0 | 3.0 | 0.00 | 0.00 | 0.00 | 65 | 1019.3 |
| 20260508021013 | 57 | 225 | 1.0 | 1.0 | 0.00 | 0.00 | 0.00 | 65 | 1019.3 |
| 20260508020509 | 57 | 180 | 3.0 | 3.0 | 0.00 | 0.00 | 0.00 | 64 | 1019.3 |
| 20260508020031 | 57 | 264 | 4.0 | 4.0 | 0.00 | 0.00 | 0.00 | 64 | 1019.3 |
| 20260508015509 | 57 | 225 | 1.0 | 1.0 | 0.00 | 0.00 | 0.00 | 67 | 1019.3 |
| 20260508015012 | 57 | 183 | 2.0 | 2.0 | 0.00 | 0.00 | 0.00 | 68 | 1019.3 |
| 20260508014513 | 57 | 180 | 1.0 | 1.0 | 0.00 | 0.00 | 0.00 | 69 | 1019.3 |
| 20260508014013 | 57 | 283 | 3.0 | 4.0 | 0.00 | 0.00 | 0.00 | 69 | 1019.3 |
| 20260508013509 | 57 | 180 | 4.0 | 6.0 | 0.00 | 0.00 | 0.00 | 64 | 1019.3 |
| 20260508013022 | 57 | 232 | 1.0 | 1.0 | 0.00 | 0.00 | 0.00 | 64 | 1019.3 |
| 20260508012510 | 57 | 162 | 0.0 | 1.0 | 0.00 | 0.00 | 0.00 | 66 | 1019.3 |
| 20260508012014 | 57 | 211 | 2.0 | 2.0 | 0.00 | 0.00 | 0.00 | 66 | 1019.3 |
| 20260508011512 | 57 | 185 | 2.0 | 2.0 | 0.00 | 0.00 | 0.00 | 66 | 1019.3 |
| 20260508011013 | 57 | 251 | 4.0 | 4.0 | 0.00 | 0.00 | 0.00 | 65 | 1019.6 |
| 20260508010509 | 57 | 168 | 0.0 | 0.0 | 0.00 | 0.00 | 0.00 | 68 | 1019.6 |
| 20260508010032 | 57 | 174 | 1.0 | 1.0 | 0.00 | 0.00 | 0.00 | 66 | 1020.0 |
| 20260508005509 | 57 | 239 | 4.0 | 6.0 | 0.00 | 0.00 | 0.00 | 65 | 1020.0 |
| 20260508005013 | 57 | 265 | 2.0 | 5.0 | 0.00 | 0.00 | 0.00 | 65 | 1020.0 |
| 20260508004513 | 57 | 199 | 1.0 | 2.0 | 0.00 | 0.00 | 0.00 | 70 | 1020.0 |
| 20260508004012 | 57 | 198 | 1.0 | 2.0 | 0.00 | 0.00 | 0.00 | 72 | 1020.0 |
| 20260508003509 | 57 | 226 | 1.0 | 2.0 | 0.00 | 0.00 | 0.00 | 73 | 1020.0 |
| 20260508003023 | 57 | 209 | 2.0 | 5.0 | 0.00 | 0.00 | 0.00 | 67 | 1020.0 |
| 20260508002510 | 57 | 226 | 2.0 | 3.0 | 0.00 | 0.00 | 0.00 | 67 | 1020.0 |
| 20260508002013 | 57 | 268 | 1.0 | 2.0 | 0.00 | 0.00 | 0.00 | 70 | 1020.0 |
| 20260508001518 | 57 | 259 | 2.0 | 2.0 | 0.00 | 0.00 | 0.00 | 68 | 1020.0 |
| 20260508000509 | 57 | 241 | 2.0 | 3.0 | 0.00 | 0.00 | 0.00 | 69 | 1020.0 |
| 20260507235510 | 55 | 249 | 2.0 | 3.0 | 0.00 | 0.00 | 0.00 | 69 | 1020.0 |
| 20260507235014 | 55 | 250 | 2.0 | 3.0 | 0.00 | 0.00 | 0.00 | 70 | 1020.0 |
| 20260507234512 | 57 | 245 | 2.0 | 2.0 | 0.00 | 0.00 | 0.00 | 69 | 1020.0 |
| 20260507234014 | 57 | 192 | 2.0 | 4.0 | 0.00 | 0.00 | 0.00 | 69 | 1020.0 |
| 20260507233509 | 57 | 287 | 6.0 | 7.0 | 0.00 | 0.00 | 0.00 | 69 | 1020.3 |
| 20260507232509 | 55 | 212 | 1.0 | 1.0 | 0.00 | 0.00 | 0.00 | 75 | 1020.3 |
| 20260507232012 | 55 | 208 | 1.0 | 3.0 | 0.00 | 0.00 | 0.00 | 73 | 1020.3 |
| 20260507231514 | 55 | 254 | 2.0 | 2.0 | 0.00 | 0.00 | 0.00 | 74 | 1020.3 |
| 20260507231013 | 57 | 194 | 1.0 | 3.0 | 0.00 | 0.00 | 0.00 | 75 | 1020.7 |
| 20260507230510 | 57 | 244 | 1.0 | 3.0 | 0.00 | 0.00 | 0.00 | 75 | 1020.7 |
| 20260507230032 | 57 | 235 | 1.0 | 3.0 | 0.00 | 0.00 | 0.00 | 75 | 1020.7 |
| 20260507225510 | 57 | 270 | 2.0 | 4.0 | 0.00 | 0.00 | 0.00 | 75 | 1020.7 |
| 20260507225013 | 57 | 266 | 2.0 | 3.0 | 0.00 | 0.00 | 0.00 | 74 | 1020.7 |
| 20260507224513 | 57 | 243 | 1.0 | 2.0 | 0.00 | 0.00 | 0.00 | 75 | 1020.7 |
| 20260507224013 | 57 | 277 | 1.0 | 2.0 | 0.00 | 0.00 | 0.00 | 75 | 1020.7 |
| 20260507223510 | 57 | 249 | 2.0 | 3.0 | 0.00 | 0.00 | 0.00 | 75 | 1020.7 |
| 20260507223023 | 57 | 260 | 2.0 | 4.0 | 0.00 | 0.00 | 0.00 | 75 | 1020.7 |
| 20260507222509 | 57 | 282 | 3.0 | 3.0 | 0.00 | 0.00 | 0.00 | 75 | 1020.7 |
| 20260507222013 | 57 | 212 | 1.0 | 2.0 | 0.00 | 0.00 | 0.00 | 77 | 1020.7 |
| 20260507221513 | 57 | 209 | 1.0 | 2.0 | 0.00 | 0.00 | 0.00 | 77 | 1020.7 |
| 20260507221015 | 57 | 217 | 2.0 | 2.0 | 0.00 | 0.00 | 0.00 | 77 | 1020.7 |
| 20260507220510 | 57 | 194 | 1.0 | 1.0 | 0.00 | 0.00 | 0.00 | 78 | 1020.7 |
| 20260507220034 | 57 | 258 | 2.0 | 2.0 | 0.00 | 0.00 | 0.00 | 77 | 1020.7 |
| 20260507215510 | 57 | 178 | 0.0 | 2.0 | 0.00 | 0.00 | 0.00 | 77 | 1020.7 |
| 20260507215013 | 57 | 276 | 2.0 | 2.0 | 0.00 | 0.00 | 0.00 | 78 | 1020.7 |
| 20260507214513 | 57 | 207 | 1.0 | 1.0 | 0.00 | 0.00 | 0.00 | 78 | 1020.7 |
| 20260507214014 | 57 | 243 | 1.0 | 2.0 | 0.00 | 0.00 | 0.00 | 78 | 1020.7 |
| 20260507213510 | 57 | 259 | 2.0 | 2.0 | 0.00 | 0.00 | 0.00 | 79 | 1020.7 |
| 20260507213025 | 57 | 200 | 0.0 | 0.0 | 0.00 | 0.00 | 0.00 | 78 | 1020.7 |
| 20260507212509 | 57 | 231 | 2.0 | 2.0 | 0.00 | 0.00 | 0.00 | 79 | 1020.7 |
| 20260507212014 | 57 | 207 | 2.0 | 4.0 | 0.00 | 0.00 | 0.00 | 80 | 1020.7 |
| 20260507211515 | 57 | 197 | 2.0 | 3.0 | 0.00 | 0.00 | 0.00 | 80 | 1020.7 |
| 20260507211014 | 57 | 275 | 2.0 | 4.0 | 0.00 | 0.00 | 0.00 | 79 | 1020.7 |
| 20260507210510 | 57 | 269 | 1.0 | 1.0 | 0.00 | 0.00 | 0.00 | 80 | 1020.7 |
| 20260507210033 | 57 | 232 | 1.0 | 2.0 | 0.00 | 0.00 | 0.00 | 81 | 1020.7 |
| 20260507205510 | 57 | 166 | 1.0 | 1.0 | 0.00 | 0.00 | 0.00 | 80 | 1020.7 |
| 20260507204513 | 57 | 181 | 2.0 | 2.0 | 0.00 | 0.00 | 0.00 | 80 | 1020.7 |
| 20260507204015 | 57 | 248 | 1.0 | 1.0 | 0.00 | 0.00 | 0.00 | 80 | 1020.7 |
| 20260507203510 | 57 | 196 | 1.0 | 2.0 | 0.00 | 0.00 | 0.00 | 82 | 1020.7 |
| 20260507203024 | 57 | 214 | 2.0 | 3.0 | 0.00 | 0.00 | 0.00 | 81 | 1020.7 |
| 20260507202510 | 57 | 180 | 1.0 | 3.0 | 0.00 | 0.00 | 0.00 | 81 | 1020.7 |
| 20260507202014 | 57 | 264 | 2.0 | 2.0 | 0.00 | 0.00 | 0.00 | 80 | 1020.7 |
| 20260507201513 | 59 | 186 | 0.0 | 1.0 | 0.00 | 0.00 | 0.00 | 81 | 1020.7 |
| 20260507201013 | 57 | 258 | 2.0 | 3.0 | 0.00 | 0.00 | 0.00 | 79 | 1020.3 |
| 20260507200039 | 59 | 179 | 1.0 | 1.0 | 0.00 | 0.00 | 0.00 | 80 | 1020.3 |
| 20260507195509 | 59 | 250 | 2.0 | 2.0 | 0.00 | 0.00 | 0.00 | 81 | 1020.3 |
| 20260507195013 | 59 | 221 | 4.0 | 4.0 | 0.00 | 0.00 | 0.00 | 80 | 1020.3 |
| 20260507194513 | 59 | 284 | 1.0 | 2.0 | 0.00 | 0.00 | 0.00 | 80 | 1020.7 |
| 20260507193510 | 59 | 256 | 1.0 | 2.0 | 0.00 | 0.00 | 0.00 | 80 | 1020.3 |
| 20260507192511 | 59 | 270 | 1.0 | 1.0 | 0.00 | 0.00 | 0.00 | 81 | 1020.3 |
| 20260507192014 | 59 | 246 | 2.0 | 4.0 | 0.00 | 0.00 | 0.00 | 80 | 1020.3 |
| 20260507191513 | 59 | 230 | 2.0 | 2.0 | 0.00 | 0.00 | 0.00 | 81 | 1020.3 |
| 20260507191015 | 59 | 247 | 2.0 | 2.0 | 0.00 | 0.00 | 0.00 | 81 | 1020.0 |
| 20260507190510 | 59 | 217 | 2.0 | 2.0 | 0.00 | 0.00 | 0.00 | 82 | 1020.0 |
| 20260507190034 | 59 | 180 | 2.0 | 2.0 | 0.00 | 0.00 | 0.00 | 79 | 1020.3 |
| 20260507185509 | 59 | 245 | 2.0 | 2.0 | 0.00 | 0.00 | 0.00 | 81 | 1020.3 |
| 20260507185014 | 59 | 189 | 2.0 | 2.0 | 0.00 | 0.00 | 0.00 | 83 | 1020.3 |
| 20260507184513 | 61 | 217 | 1.0 | 2.0 | 0.00 | 0.00 | 0.00 | 80 | 1020.3 |
| 20260507184013 | 61 | 282 | 2.0 | 3.0 | 0.00 | 0.00 | 0.00 | 77 | 1020.3 |
| 20260507183509 | 61 | 209 | 3.0 | 4.0 | 0.00 | 0.00 | 0.00 | 77 | 1020.3 |
| 20260507183025 | 61 | 246 | 2.0 | 2.0 | 0.00 | 0.00 | 0.00 | 80 | 1020.3 |
| 20260507182509 | 61 | 194 | 1.0 | 1.0 | 0.00 | 0.00 | 0.00 | 79 | 1020.3 |
| 20260507182013 | 61 | 197 | 2.0 | 3.0 | 0.00 | 0.00 | 0.00 | 77 | 1020.3 |
| 20260507181514 | 63 | 210 | 2.0 | 2.0 | 0.00 | 0.00 | 0.00 | 77 | 1020.3 |
| 20260507181014 | 63 | 253 | 2.0 | 2.0 | 0.00 | 0.00 | 0.00 | 76 | 1020.3 |
| 20260507180510 | 63 | 197 | 1.0 | 2.0 | 0.00 | 0.00 | 0.00 | 76 | 1020.3 |
| 20260507180032 | 63 | 201 | 2.0 | 2.0 | 0.00 | 0.00 | 0.00 | 76 | 1020.3 |
| 20260507175509 | 63 | 194 | 1.0 | 1.0 | 0.00 | 0.00 | 0.00 | 75 | 1020.3 |
| 20260507175015 | 64 | 207 | 2.0 | 2.0 | 0.00 | 0.00 | 0.00 | 75 | 1020.3 |
| 20260507174514 | 64 | 176 | 0.0 | 1.0 | 0.00 | 0.00 | 0.00 | 74 | 1020.3 |
| 20260507174013 | 64 | 161 | 0.0 | 0.0 | 0.00 | 0.00 | 0.00 | 74 | 1020.3 |
| 20260507173510 | 64 | 170 | 0.0 | 1.0 | 0.00 | 0.00 | 0.00 | 72 | 1020.3 |
| 20260507173025 | 66 | 176 | 1.0 | 1.0 | 0.00 | 0.00 | 0.00 | 70 | 1020.3 |
| 20260507172509 | 66 | 177 | 1.0 | 1.0 | 0.00 | 0.00 | 0.00 | 69 | 1020.3 |
| 20260507171513 | 66 | 165 | 0.0 | 0.0 | 0.00 | 0.00 | 0.00 | 68 | 1020.3 |
| 20260507171013 | 66 | 156 | 0.0 | 0.0 | 0.00 | 0.00 | 0.00 | 66 | 1020.0 |
| 20260507170510 | 66 | 170 | 0.0 | 0.0 | 0.00 | 0.00 | 0.00 | 66 | 1020.0 |
| 20260507170034 | 66 | 161 | 0.0 | 0.0 | 0.00 | 0.00 | 0.00 | 65 | 1020.0 |
| 20260507165510 | 66 | 155 | 0.0 | 0.0 | 0.00 | 0.00 | 0.00 | 66 | 1020.0 |
| 20260507165013 | 66 | 157 | 0.0 | 1.0 | 0.00 | 0.00 | 0.00 | 65 | 1020.0 |
| 20260507164513 | 66 | 168 | 0.0 | 0.0 | 0.00 | 0.00 | 0.00 | 66 | 1020.0 |
| 20260507164013 | 66 | 155 | 0.0 | 0.0 | 0.00 | 0.00 | 0.00 | 65 | 1020.0 |
| 20260507163510 | 68 | 172 | 0.0 | 0.0 | 0.00 | 0.00 | 0.00 | 64 | 1020.0 |
| 20260507163024 | 68 | 149 | 1.0 | 1.0 | 0.00 | 0.00 | 0.00 | 64 | 1020.0 |
| 20260507162510 | 68 | 140 | 0.0 | 1.0 | 0.00 | 0.00 | 0.00 | 64 | 1020.0 |
| 20260507162013 | 68 | 163 | 0.0 | 0.0 | 0.00 | 0.00 | 0.00 | 63 | 1020.0 |
| 20260507161513 | 68 | 157 | 0.0 | 1.0 | 0.00 | 0.00 | 0.00 | 61 | 1020.0 |
| 20260507160510 | 70 | 122 | 1.0 | 1.0 | 0.00 | 0.00 | 0.00 | 60 | 1020.0 |
| 20260507155510 | 72 | 154 | 0.0 | 0.0 | 0.00 | 0.00 | 0.00 | 58 | 1020.0 |
| 20260507155013 | 72 | 171 | 0.0 | 1.0 | 0.00 | 0.00 | 0.00 | 58 | 1020.0 |
| 20260507154515 | 73 | 157 | 1.0 | 1.0 | 0.00 | 0.00 | 0.00 | 54 | 1020.0 |
| 20260507154014 | 73 | 136 | 0.0 | 1.0 | 0.00 | 0.00 | 0.00 | 56 | 1020.0 |
| 20260507153509 | 73 | 146 | 1.0 | 1.0 | 0.00 | 0.00 | 0.00 | 54 | 1020.0 |
| 20260507153024 | 75 | 145 | 1.0 | 1.0 | 0.00 | 0.00 | 0.00 | 54 | 1020.0 |
| 20260507152509 | 73 | 155 | 1.0 | 1.0 | 0.00 | 0.00 | 0.00 | 54 | 1020.0 |
| 20260507152013 | 73 | 140 | 1.0 | 2.0 | 0.00 | 0.00 | 0.00 | 53 | 1020.3 |
| 20260507151513 | 75 | 164 | 1.0 | 1.0 | 0.00 | 0.00 | 0.00 | 52 | 1020.3 |
| 20260507151014 | 75 | 169 | 1.0 | 1.0 | 0.00 | 0.00 | 0.00 | 52 | 1020.3 |
| 20260507150510 | 75 | 166 | 1.0 | 1.0 | 0.00 | 0.00 | 0.00 | 52 | 1020.3 |
| 20260507150033 | 75 | 160 | 1.0 | 1.0 | 0.00 | 0.00 | 0.00 | 52 | 1020.3 |
| 20260507145509 | 75 | 168 | 0.0 | 1.0 | 0.00 | 0.00 | 0.00 | 54 | 1020.3 |
| 20260507145013 | 75 | 162 | 0.0 | 1.0 | 0.00 | 0.00 | 0.00 | 51 | 1020.3 |
| 20260507144513 | 75 | 164 | 0.0 | 1.0 | 0.00 | 0.00 | 0.00 | 51 | 1020.7 |
| 20260507143511 | 75 | 155 | 0.0 | 1.0 | 0.00 | 0.00 | 0.00 | 51 | 1020.7 |
| 20260507143028 | 75 | 121 | 1.0 | 1.0 | 0.00 | 0.00 | 0.00 | 50 | 1020.7 |
| 20260507142509 | 75 | 120 | 0.0 | 1.0 | 0.00 | 0.00 | 0.00 | 52 | 1020.7 |
| 20260507142013 | 75 | 133 | 1.0 | 1.0 | 0.00 | 0.00 | 0.00 | 53 | 1020.7 |
| 20260507141513 | 77 | 158 | 0.0 | 1.0 | 0.00 | 0.00 | 0.00 | 51 | 1020.7 |
| 20260507141013 | 77 | 155 | 1.0 | 1.0 | 0.00 | 0.00 | 0.00 | 51 | 1020.7 |
| 20260507140509 | 77 | 157 | 0.0 | 1.0 | 0.00 | 0.00 | 0.00 | 51 | 1020.7 |
| 20260507140032 | 77 | 147 | 1.0 | 1.0 | 0.00 | 0.00 | 0.00 | 50 | 1020.7 |
| 20260507135510 | 77 | 160 | 0.0 | 1.0 | 0.00 | 0.00 | 0.00 | 49 | 1020.7 |
| 20260507135014 | 77 | 128 | 2.0 | 2.0 | 0.00 | 0.00 | 0.00 | 50 | 1020.7 |
| 20260507134512 | 79 | 154 | 1.0 | 1.0 | 0.00 | 0.00 | 0.00 | 47 | 1021.0 |
| 20260507133023 | 81 | 151 | 1.0 | 1.0 | 0.00 | 0.00 | 0.00 | 46 | 1021.0 |
| 20260507132509 | 81 | 165 | 1.0 | 1.0 | 0.00 | 0.00 | 0.00 | 47 | 1021.0 |
| 20260507132013 | 82 | 152 | 0.0 | 1.0 | 0.00 | 0.00 | 0.00 | 45 | 1021.0 |
| 20260507131513 | 81 | 213 | 0.0 | 1.0 | 0.00 | 0.00 | 0.00 | 47 | 1021.0 |
| 20260507130510 | 79 | 135 | 0.0 | 1.0 | 0.00 | 0.00 | 0.00 | 47 | 1021.7 |
| 20260507130033 | 81 | 168 | 0.0 | 1.0 | 0.00 | 0.00 | 0.00 | 46 | 1021.7 |
| 20260507125510 | 81 | 180 | 0.0 | 1.0 | 0.00 | 0.00 | 0.00 | 48 | 1021.7 |
| 20260507125014 | 79 | 172 | 1.0 | 1.0 | 0.00 | 0.00 | 0.00 | 49 | 1021.7 |
| 20260507124514 | 77 | 141 | 2.0 | 2.0 | 0.00 | 0.00 | 0.00 | 49 | 1021.7 |
| 20260507124013 | 79 | 129 | 1.0 | 1.0 | 0.00 | 0.00 | 0.00 | 49 | 1021.7 |
| 20260507123509 | 79 | 165 | 0.0 | 1.0 | 0.00 | 0.00 | 0.00 | 48 | 1021.7 |
| 20260507123024 | 79 | 146 | 1.0 | 1.0 | 0.00 | 0.00 | 0.00 | 50 | 1021.7 |
| 20260507122510 | 77 | 140 | 1.0 | 1.0 | 0.00 | 0.00 | 0.00 | 52 | 1021.7 |
| 20260507122013 | 79 | 151 | 1.0 | 1.0 | 0.00 | 0.00 | 0.00 | 48 | 1021.7 |
| 20260507121513 | 79 | 159 | 1.0 | 1.0 | 0.00 | 0.00 | 0.00 | 49 | 1021.7 |
| 20260507121014 | 81 | 171 | 0.0 | 1.0 | 0.00 | 0.00 | 0.00 | 48 | 1021.7 |
| 20260507120510 | 79 | 156 | 1.0 | 1.0 | 0.00 | 0.00 | 0.00 | 50 | 1021.7 |
| 20260507120033 | 79 | 143 | 1.0 | 1.0 | 0.00 | 0.00 | 0.00 | 50 | 1021.7 |
| 20260507115509 | 77 | 164 | 1.0 | 2.0 | 0.00 | 0.00 | 0.00 | 51 | 1021.7 |
| 20260507115014 | 77 | 157 | 1.0 | 1.0 | 0.00 | 0.00 | 0.00 | 51 | 1021.7 |
| 20260507114513 | 79 | 153 | 0.0 | 1.0 | 0.00 | 0.00 | 0.00 | 50 | 1021.7 |
| 20260507114014 | 79 | 158 | 1.0 | 1.0 | 0.00 | 0.00 | 0.00 | 49 | 1021.7 |
| 20260507113509 | 81 | 168 | 1.0 | 1.0 | 0.00 | 0.00 | 0.00 | 48 | 1021.7 |
| 20260507113024 | 77 | 169 | 0.0 | 1.0 | 0.00 | 0.00 | 0.00 | 52 | 1021.7 |
| 20260507112509 | 77 | 135 | 0.0 | 1.0 | 0.00 | 0.00 | 0.00 | 53 | 1021.7 |
| 20260507112013 | 79 | 144 | 1.0 | 2.0 | 0.00 | 0.00 | 0.00 | 52 | 1022.0 |
| 20260507111513 | 79 | 155 | 1.0 | 1.0 | 0.00 | 0.00 | 0.00 | 51 | 1022.0 |
| 20260507111013 | 77 | 160 | 1.0 | 1.0 | 0.00 | 0.00 | 0.00 | 52 | 1022.0 |
| 20260507110509 | 77 | 138 | 1.0 | 1.0 | 0.00 | 0.00 | 0.00 | 53 | 1022.0 |
| 20260507110032 | 77 | 161 | 1.0 | 1.0 | 0.00 | 0.00 | 0.00 | 52 | 1022.0 |
| 20260507105509 | 75 | 87 | 2.0 | 2.0 | 0.00 | 0.00 | 0.00 | 54 | 1022.4 |
| 20260507105013 | 75 | 183 | 2.0 | 2.0 | 0.00 | 0.00 | 0.00 | 54 | 1022.4 |
| 20260507104512 | 75 | 155 | 1.0 | 1.0 | 0.00 | 0.00 | 0.00 | 57 | 1022.4 |
| 20260507104014 | 73 | 172 | 1.0 | 1.0 | 0.00 | 0.00 | 0.00 | 57 | 1022.4 |
| 20260507103510 | 75 | 129 | 1.0 | 1.0 | 0.00 | 0.00 | 0.00 | 55 | 1022.4 |
| 20260507103025 | 75 | 155 | 1.0 | 1.0 | 0.00 | 0.00 | 0.00 | 55 | 1022.4 |
| 20260507102510 | 75 | 117 | 2.0 | 3.0 | 0.00 | 0.00 | 0.00 | 54 | 1022.4 |
| 20260507102013 | 75 | 162 | 1.0 | 1.0 | 0.00 | 0.00 | 0.00 | 56 | 1022.4 |
| 20260507101513 | 75 | 151 | 2.0 | 2.0 | 0.00 | 0.00 | 0.00 | 55 | 1022.4 |
| 20260507101013 | 75 | 125 | 1.0 | 2.0 | 0.00 | 0.00 | 0.00 | 56 | 1022.4 |
| 20260507100509 | 73 | 180 | 1.0 | 1.0 | 0.00 | 0.00 | 0.00 | 58 | 1022.4 |
| 20260507100031 | 73 | 159 | 0.0 | 1.0 | 0.00 | 0.00 | 0.00 | 58 | 1022.4 |
| 20260507095509 | 72 | 176 | 1.0 | 1.0 | 0.00 | 0.00 | 0.00 | 60 | 1022.4 |
| 20260507095013 | 70 | 160 | 1.0 | 1.0 | 0.00 | 0.00 | 0.00 | 63 | 1022.4 |
| 20260507094513 | 70 | 155 | 1.0 | 1.0 | 0.00 | 0.00 | 0.00 | 62 | 1022.4 |
| 20260507094014 | 72 | 142 | 0.0 | 1.0 | 0.00 | 0.00 | 0.00 | 58 | 1022.4 |
| 20260507093509 | 73 | 152 | 1.0 | 2.0 | 0.00 | 0.00 | 0.00 | 58 | 1022.0 |
| 20260507093023 | 75 | 171 | 1.0 | 1.0 | 0.00 | 0.00 | 0.00 | 55 | 1022.0 |
| 20260507092509 | 73 | 148 | 0.0 | 1.0 | 0.00 | 0.00 | 0.00 | 57 | 1022.0 |
| 20260507092013 | 73 | 165 | 1.0 | 1.0 | 0.00 | 0.00 | 0.00 | 57 | 1021.7 |
| 20260507091513 | 73 | 168 | 1.0 | 1.0 | 0.00 | 0.00 | 0.00 | 58 | 1021.7 |
| 20260507091013 | 75 | 138 | 1.0 | 2.0 | 0.00 | 0.00 | 0.00 | 54 | 1021.7 |
| 20260507090509 | 75 | 140 | 0.0 | 1.0 | 0.00 | 0.00 | 0.00 | 54 | 1021.7 |
| 20260507090032 | 75 | 203 | 0.0 | 1.0 | 0.00 | 0.00 | 0.00 | 55 | 1021.7 |
| 20260507085508 | 73 | 142 | 1.0 | 1.0 | 0.00 | 0.00 | 0.00 | 57 | 1021.7 |
| 20260507085013 | 75 | 169 | 1.0 | 1.0 | 0.00 | 0.00 | 0.00 | 56 | 1021.7 |
| 20260507084513 | 75 | 155 | 1.0 | 1.0 | 0.00 | 0.00 | 0.00 | 55 | 1021.7 |
| 20260507084013 | 75 | 161 | 0.0 | 1.0 | 0.00 | 0.00 | 0.00 | 54 | 1021.7 |
| 20260507083509 | 73 | 129 | 2.0 | 2.0 | 0.00 | 0.00 | 0.00 | 55 | 1021.7 |
| 20260507083022 | 73 | 146 | 0.0 | 1.0 | 0.00 | 0.00 | 0.00 | 57 | 1021.7 |
| 20260507082509 | 73 | 158 | 1.0 | 2.0 | 0.00 | 0.00 | 0.00 | 56 | 1021.7 |
| 20260507082013 | 73 | 131 | 1.0 | 2.0 | 0.00 | 0.00 | 0.00 | 57 | 1021.7 |
| 20260507081514 | 75 | 133 | 0.0 | 0.0 | 0.00 | 0.00 | 0.00 | 56 | 1021.7 |
| 20260507081013 | 73 | 168 | 1.0 | 1.0 | 0.00 | 0.00 | 0.00 | 57 | 1021.7 |
| 20260507080509 | 73 | 165 | 0.0 | 1.0 | 0.00 | 0.00 | 0.00 | 55 | 1021.7 |
| 20260507080031 | 73 | 165 | 1.0 | 1.0 | 0.00 | 0.00 | 0.00 | 58 | 1021.7 |
| 20260507075509 | 73 | 170 | 1.0 | 4.0 | 0.00 | 0.00 | 0.00 | 57 | 1021.7 |
| 20260507075013 | 73 | 107 | 0.0 | 1.0 | 0.00 | 0.00 | 0.00 | 55 | 1021.7 |
| 20260507074513 | 73 | 138 | 3.0 | 4.0 | 0.00 | 0.00 | 0.00 | 56 | 1021.7 |
| 20260507074013 | 73 | 154 | 0.0 | 1.0 | 0.00 | 0.00 | 0.00 | 58 | 1021.7 |
| 20260507073509 | 73 | 162 | 0.0 | 1.0 | 0.00 | 0.00 | 0.00 | 57 | 1022.0 |
| 20260507073024 | 73 | 147 | 0.0 | 0.0 | 0.00 | 0.00 | 0.00 | 57 | 1022.0 |
| 20260507072509 | 73 | 154 | 0.0 | 1.0 | 0.00 | 0.00 | 0.00 | 56 | 1022.0 |
| 20260507072014 | 72 | 168 | 0.0 | 1.0 | 0.00 | 0.00 | 0.00 | 59 | 1022.0 |
| 20260507071513 | 72 | 167 | 1.0 | 2.0 | 0.00 | 0.00 | 0.00 | 58 | 1022.0 |
| 20260507071014 | 72 | 162 | 0.0 | 0.0 | 0.00 | 0.00 | 0.00 | 58 | 1021.7 |
| 20260507070510 | 72 | 156 | 0.0 | 0.0 | 0.00 | 0.00 | 0.00 | 60 | 1021.7 |
| 20260507070033 | 70 | 175 | 1.0 | 1.0 | 0.00 | 0.00 | 0.00 | 60 | 1021.7 |
| 20260507065511 | 72 | 165 | 0.0 | 1.0 | 0.00 | 0.00 | 0.00 | 59 | 1021.7 |
| 20260507065014 | 70 | 166 | 2.0 | 2.0 | 0.00 | 0.00 | 0.00 | 59 | 1021.7 |
| 20260507064514 | 70 | 164 | 0.0 | 0.0 | 0.00 | 0.00 | 0.00 | 59 | 1021.7 |
| 20260507064014 | 72 | 164 | 0.0 | 0.0 | 0.00 | 0.00 | 0.00 | 58 | 1021.7 |
| 20260507063509 | 70 | 164 | 0.0 | 0.0 | 0.00 | 0.00 | 0.00 | 61 | 1021.7 |
| 20260507063023 | 68 | 168 | 0.0 | 0.0 | 0.00 | 0.00 | 0.00 | 66 | 1021.7 |
| 20260507062510 | 66 | 163 | 0.0 | 1.0 | 0.00 | 0.00 | 0.00 | 66 | 1021.7 |
| 20260507062013 | 66 | 155 | 1.0 | 1.0 | 0.00 | 0.00 | 0.00 | 69 | 1021.0 |
| 20260507061512 | 68 | 173 | 0.0 | 0.0 | 0.00 | 0.00 | 0.00 | 68 | 1021.0 |
| 20260507061013 | 66 | 166 | 0.0 | 0.0 | 0.00 | 0.00 | 0.00 | 72 | 1021.0 |
| 20260507060510 | 66 | 162 | 0.0 | 1.0 | 0.00 | 0.00 | 0.00 | 69 | 1021.0 |
| 20260507060034 | 66 | 166 | 0.0 | 0.0 | 0.00 | 0.00 | 0.00 | 69 | 1020.7 |
| 20260507055510 | 66 | 165 | 0.0 | 0.0 | 0.00 | 0.00 | 0.00 | 71 | 1020.7 |
| 20260507055014 | 64 | 168 | 0.0 | 0.0 | 0.00 | 0.00 | 0.00 | 73 | 1020.7 |
| 20260507054513 | 63 | 167 | 0.0 | 0.0 | 0.00 | 0.00 | 0.00 | 77 | 1020.7 |
| 20260507054013 | 63 | 177 | 0.0 | 0.0 | 0.00 | 0.00 | 0.00 | 77 | 1020.7 |
| 20260507053509 | 61 | 188 | 1.0 | 2.0 | 0.00 | 0.00 | 0.00 | 81 | 1020.7 |
| 20260507053022 | 59 | 244 | 3.0 | 3.0 | 0.00 | 0.00 | 0.00 | 81 | 1020.7 |
| 20260507052509 | 59 | 235 | 1.0 | 1.0 | 0.00 | 0.00 | 0.00 | 82 | 1020.7 |
| 20260507052014 | 59 | 207 | 2.0 | 2.0 | 0.00 | 0.00 | 0.00 | 82 | 1020.7 |
| 20260507051513 | 59 | 240 | 2.0 | 2.0 | 0.00 | 0.00 | 0.00 | 83 | 1020.7 |
| 20260507051014 | 57 | 273 | 2.0 | 2.0 | 0.00 | 0.00 | 0.00 | 85 | 1020.7 |
| 20260507050031 | 57 | 232 | 2.0 | 3.0 | 0.00 | 0.00 | 0.00 | 86 | 1020.3 |
| 20260507045509 | 55 | 209 | 2.0 | 3.0 | 0.00 | 0.00 | 0.00 | 89 | 1020.3 |
| 20260507045013 | 55 | 206 | 1.0 | 1.0 | 0.00 | 0.00 | 0.00 | 88 | 1020.3 |
| 20260507043509 | 55 | 181 | 1.0 | 2.0 | 0.00 | 0.00 | 0.00 | 88 | 1020.3 |
| 20260507043023 | 55 | 260 | 1.0 | 3.0 | 0.00 | 0.00 | 0.00 | 88 | 1020.3 |
| 20260507042509 | 55 | 218 | 2.0 | 3.0 | 0.00 | 0.00 | 0.00 | 89 | 1020.3 |
| 20260507042013 | 55 | 192 | 1.0 | 1.0 | 0.00 | 0.00 | 0.00 | 89 | 1020.0 |
| 20260507041513 | 55 | 213 | 1.0 | 2.0 | 0.00 | 0.00 | 0.00 | 89 | 1020.0 |
| 20260507041013 | 55 | 183 | 1.0 | 1.0 | 0.00 | 0.00 | 0.00 | 88 | 1020.3 |
| 20260507040509 | 55 | 187 | 2.0 | 2.0 | 0.00 | 0.00 | 0.00 | 88 | 1020.3 |
| 20260507040033 | 55 | 191 | 2.0 | 2.0 | 0.00 | 0.00 | 0.00 | 88 | 1020.3 |
| 20260507035509 | 55 | 178 | 1.0 | 1.0 | 0.00 | 0.00 | 0.00 | 88 | 1020.3 |
| 20260507035013 | 57 | 254 | 2.0 | 2.0 | 0.00 | 0.00 | 0.00 | 88 | 1020.3 |
| 20260507034512 | 55 | 264 | 1.0 | 1.0 | 0.00 | 0.00 | 0.00 | 89 | 1020.3 |
| 20260507034013 | 55 | 183 | 0.0 | 1.0 | 0.00 | 0.00 | 0.00 | 90 | 1020.3 |
| 20260507033509 | 57 | 178 | 0.0 | 1.0 | 0.00 | 0.00 | 0.00 | 90 | 1020.3 |
| 20260507033022 | 57 | 244 | 2.0 | 2.0 | 0.00 | 0.00 | 0.00 | 89 | 1020.3 |
| 20260507032510 | 57 | 216 | 2.0 | 3.0 | 0.00 | 0.00 | 0.00 | 89 | 1020.3 |
| 20260507032012 | 57 | 165 | 1.0 | 2.0 | 0.00 | 0.00 | 0.00 | 89 | 1020.0 |
| 20260507031512 | 57 | 261 | 2.0 | 4.0 | 0.00 | 0.00 | 0.00 | 90 | 1020.0 |
| 20260507031013 | 57 | 206 | 2.0 | 3.0 | 0.00 | 0.00 | 0.00 | 91 | 1020.3 |
| 20260507030509 | 57 | 199 | 2.0 | 2.0 | 0.00 | 0.00 | 0.00 | 91 | 1020.3 |
| 20260507030032 | 57 | 248 | 2.0 | 3.0 | 0.00 | 0.00 | 0.00 | 91 | 1020.3 |
| 20260507025509 | 57 | 247 | 1.0 | 1.0 | 0.00 | 0.00 | 0.00 | 91 | 1020.3 |
| 20260507025013 | 57 | 236 | 2.0 | 3.0 | 0.00 | 0.00 | 0.00 | 90 | 1020.3 |
| 20260507024514 | 57 | 249 | 3.0 | 4.0 | 0.00 | 0.00 | 0.00 | 91 | 1020.3 |
| 20260507024013 | 57 | 269 | 4.0 | 5.0 | 0.00 | 0.00 | 0.00 | 91 | 1020.3 |